This is the latest recevied weather packets stored in our database for station/object FRA001-13. If no packets are shown the sender has not sent any weather packets the latest 1 day(s).
| Time | Temp. | Humidity | Pressure | Rain* | Wind** | Luminosity | Snow |
|---|---|---|---|---|---|---|---|
| 1778137203 | 7.22° C | 100% | 1013.7 hPa | 0 mm | - | 145 W/m² | - |
| 1778136903 | 7.22° C | 100% | 1013.6 hPa | 0 mm | - | 151 W/m² | - |
| 1778136603 | 7.22° C | 100% | 1013.7 hPa | 0 mm | - | 157 W/m² | - |
| 1778136303 | 6.67° C | 100% | 1013.7 hPa | 0 mm | - | 143 W/m² | - |
| 1778136003 | 6.67° C | 100% | 1013.7 hPa | 0 mm | - | 140 W/m² | - |
| 1778135704 | 6.67° C | 100% | 1013.8 hPa | 0 mm | - | 133 W/m² | - |
| 1778135403 | 6.11° C | 100% | 1013.5 hPa | 0 mm | - | 121 W/m² | - |
| 1778135104 | 6.11° C | 100% | 1013.6 hPa | 0 mm | - | 102 W/m² | - |
| 1778134803 | 6.11° C | 100% | 1013.8 hPa | 0 mm | - | 101 W/m² | - |
| 1778134503 | 6.11° C | 100% | 1013.8 hPa | 0 mm | - | 97 W/m² | - |
| 1778134204 | 5.56° C | 100% | 1013.7 hPa | 0 mm | - | 85 W/m² | - |
| 1778133904 | 5.56° C | 100% | 1013.8 hPa | 0 mm | - | 78 W/m² | - |
| 1778133604 | 5.56° C | 100% | 1013.7 hPa | 0 mm | - | 59 W/m² | - |
| 1778133304 | 5.56° C | 100% | 1013.7 hPa | 0 mm | - | 63 W/m² | - |
| 1778133004 | 5.56° C | 100% | 1013.7 hPa | 0 mm | - | 57 W/m² | - |
| 1778132704 | 5.56° C | 100% | 1013.4 hPa | 0 mm | - | 45 W/m² | - |
| 1778132403 | 5.56° C | 100% | 1013.3 hPa | 0 mm | - | 39 W/m² | - |
| 1778132103 | 5.56° C | 100% | 1013.3 hPa | 0 mm | - | 33 W/m² | - |
| 1778131803 | 5.56° C | 100% | 1013.4 hPa | 0 mm | - | 29 W/m² | - |
| 1778131503 | 5.56° C | 100% | 1013.4 hPa | 0 mm | - | 27 W/m² | - |
| 1778131203 | 5.56° C | 100% | 1013.4 hPa | 0 mm | - | 22 W/m² | - |
| 1778130903 | 5° C | 100% | 1013.3 hPa | 0 mm | - | 20 W/m² | - |
| 1778130603 | 5° C | 100% | 1013.3 hPa | 0 mm | - | 16 W/m² | - |
| 1778130303 | 5° C | 100% | 1013.2 hPa | 0 mm | - | 13 W/m² | - |
| 1778130003 | 4.44° C | 100% | 1013.1 hPa | 0 mm | - | 10 W/m² | - |
* Rain latest hour (hover to see other rain measurements)
** Current wind speed in m/s (hover to see current wind gust speed)